Location: Bruderhein
(53.8035°N, 112.9265°W)
Time: 09:12:22
(UTC+00:00)

deb Agena D - Pass Details

Date: 16 December 2023
Orbit: 759 x 888 km, 99.8° (Epoch: 22 February)

Event Time Altitude Azimuth Distance (km) Brightness Sun altitude
Rises 11:49:02 0° 98° (E) 3,435 ? -33.0°
Reaches altitude 10° 11:52:29 10° 76° (ENE) 2,476 ? -32.5°
Maximum altitude 11:55:23 15° 44° (NE) 2,132 ? -32.1°
Drops below altitude 10° 11:58:15 10° 12° (NNE) 2,436 ? -31.6°
Enters shadow 11:59:33 - 1° (N) 2,744 ? -31.5°
